| time (UTC) | temp F | wind direction | speed knots | gust knots | rain 1hr in | rain 24hr in | rain mn in | humidity % | barometer mb |
| 20260504215028 | 72 | 161 | 7.0 | 13.0 | 0.00 | 0.00 | 0.00 | 34 | 1006.0 |
| 20260504214546 | 72 | 184 | 6.1 | 13.0 | 0.00 | 0.00 | 0.00 | 34 | 1006.0 |
| 20260504214027 | 72 | 200 | 5.2 | 12.2 | 0.00 | 0.00 | 0.00 | 34 | 1006.0 |
| 20260504213529 | 72 | 205 | 5.2 | 12.2 | 0.00 | 0.00 | 0.00 | 32 | 1006.0 |
| 20260504213044 | 73 | 121 | 4.3 | 12.2 | 0.00 | 0.00 | 0.00 | 32 | 1006.0 |
| 20260504212529 | 73 | 223 | 4.3 | 12.2 | 0.00 | 0.00 | 0.00 | 34 | 1005.9 |
| 20260504212030 | 73 | 176 | 4.3 | 12.2 | 0.00 | 0.00 | 0.00 | 33 | 1006.1 |
| 20260504211550 | 73 | 249 | 6.1 | 11.3 | 0.00 | 0.00 | 0.00 | 32 | 1006.2 |
| 20260504211027 | 73 | 191 | 2.6 | 11.3 | 0.00 | 0.00 | 0.00 | 32 | 1006.1 |
| 20260504210527 | 73 | 224 | 3.5 | 9.6 | 0.00 | 0.00 | 0.00 | 33 | 1006.1 |
| 20260504210051 | 73 | 217 | 1.7 | 9.6 | 0.00 | 0.00 | 0.00 | 32 | 1006.1 |
| 20260504205527 | 73 | 227 | 5.2 | 9.6 | 0.00 | 0.00 | 0.00 | 31 | 1006.1 |
| 20260504205031 | 73 | 193 | 3.5 | 13.9 | 0.00 | 0.00 | 0.00 | 30 | 1006.1 |
| 20260504204548 | 73 | 220 | 4.3 | 13.9 | 0.00 | 0.00 | 0.00 | 30 | 1006.2 |
| 20260504204026 | 73 | 203 | 4.3 | 9.6 | 0.00 | 0.00 | 0.00 | 29 | 1006.2 |
| 20260504203526 | 73 | 279 | 3.5 | 12.2 | 0.00 | 0.00 | 0.00 | 31 | 1006.2 |
| 20260504203046 | 73 | 173 | 5.2 | 12.2 | 0.00 | 0.00 | 0.00 | 30 | 1006.5 |
| 20260504202529 | 73 | 190 | 4.3 | 11.3 | 0.00 | 0.00 | 0.00 | 34 | 1006.4 |
| 20260504202026 | 73 | 242 | 3.5 | 12.2 | 0.00 | 0.00 | 0.00 | 36 | 1006.5 |
| 20260504201544 | 73 | 158 | 6.1 | 12.2 | 0.00 | 0.00 | 0.00 | 32 | 1006.5 |
| 20260504201029 | 72 | 182 | 3.5 | 13.0 | 0.00 | 0.00 | 0.00 | 33 | 1006.5 |
| 20260504200529 | 72 | 188 | 5.2 | 13.0 | 0.00 | 0.00 | 0.00 | 32 | 1006.8 |
| 20260504200049 | 72 | 226 | 5.2 | 16.5 | 0.00 | 0.00 | 0.00 | 34 | 1006.7 |
| 20260504195526 | 72 | 218 | 6.1 | 16.5 | 0.00 | 0.00 | 0.00 | 32 | 1006.8 |
| 20260504195027 | 72 | 159 | 5.2 | 13.9 | 0.00 | 0.00 | 0.00 | 30 | 1006.9 |
| 20260504194553 | 72 | 187 | 7.8 | 13.9 | 0.00 | 0.00 | 0.00 | 30 | 1007.0 |
| 20260504194027 | 72 | 252 | 3.5 | 13.9 | 0.00 | 0.00 | 0.00 | 34 | 1007.2 |
| 20260504193528 | 72 | 252 | 5.2 | 13.9 | 0.00 | 0.00 | 0.00 | 35 | 1007.3 |
| 20260504193049 | 72 | 196 | 6.1 | 13.9 | 0.00 | 0.00 | 0.00 | 31 | 1007.3 |
| 20260504192529 | 72 | 238 | 7.0 | 13.9 | 0.00 | 0.00 | 0.00 | 31 | 1007.3 |
| 20260504192028 | 72 | 147 | 5.2 | 12.2 | 0.00 | 0.00 | 0.00 | 32 | 1007.3 |
| 20260504191609 | 72 | 169 | 5.2 | 11.3 | 0.00 | 0.00 | 0.00 | 32 | 1007.4 |
| 20260504191029 | 72 | 221 | 2.6 | 10.4 | 0.00 | 0.00 | 0.00 | 38 | 1007.4 |
| 20260504190528 | 72 | 248 | 3.5 | 13.0 | 0.00 | 0.00 | 0.00 | 34 | 1007.6 |
| 20260504190042 | 72 | 220 | 4.3 | 13.0 | 0.00 | 0.00 | 0.00 | 34 | 1007.8 |
| 20260504185527 | 71 | 223 | 6.1 | 13.0 | 0.00 | 0.00 | 0.00 | 35 | 1007.7 |
| 20260504185026 | 71 | 316 | 4.3 | 13.9 | 0.00 | 0.00 | 0.00 | 35 | 1007.9 |
| 20260504184550 | 70 | 0 | 4.3 | 15.6 | 0.00 | 0.00 | 0.00 | 38 | 1007.8 |
| 20260504184027 | 70 | 203 | 6.1 | 15.6 | 0.00 | 0.00 | 0.00 | 36 | 1007.9 |
| 20260504183527 | 70 | 233 | 3.5 | 13.9 | 0.00 | 0.00 | 0.00 | 37 | 1007.9 |
| 20260504183047 | 70 | 220 | 5.2 | 13.9 | 0.00 | 0.00 | 0.00 | 35 | 1008.0 |
| 20260504182531 | 70 | 213 | 4.3 | 13.9 | 0.00 | 0.00 | 0.00 | 36 | 1008.0 |
| 20260504182029 | 70 | 178 | 6.1 | 13.0 | 0.00 | 0.00 | 0.00 | 38 | 1008.0 |
| 20260504181547 | 70 | 175 | 2.6 | 13.9 | 0.00 | 0.00 | 0.00 | 41 | 1008.1 |
| 20260504181026 | 70 | 257 | 7.0 | 13.9 | 0.00 | 0.00 | 0.00 | 39 | 1008.1 |
| 20260504180547 | 70 | 193 | 5.2 | 12.2 | 0.00 | 0.00 | 0.00 | 41 | 1008.2 |
| 20260504180047 | 69 | 208 | 4.3 | 11.3 | 0.00 | 0.00 | 0.00 | 41 | 1008.1 |
| 20260504175529 | 69 | 236 | 5.2 | 14.8 | 0.00 | 0.00 | 0.00 | 46 | 1008.2 |
| 20260504175029 | 68 | 171 | 6.1 | 14.8 | 0.00 | 0.00 | 0.00 | 43 | 1008.2 |
| 20260504174542 | 68 | 225 | 7.0 | 16.5 | 0.00 | 0.00 | 0.00 | 44 | 1008.5 |
| 20260504174029 | 68 | 160 | 7.0 | 16.5 | 0.00 | 0.00 | 0.00 | 42 | 1008.4 |
| 20260504173529 | 68 | 256 | 5.2 | 14.8 | 0.00 | 0.00 | 0.00 | 43 | 1008.5 |
| 20260504173043 | 68 | 164 | 4.3 | 14.8 | 0.00 | 0.00 | 0.00 | 45 | 1008.6 |
| 20260504172532 | 67 | 178 | 7.0 | 13.9 | 0.00 | 0.00 | 0.00 | 43 | 1008.6 |
| 20260504172028 | 68 | 202 | 6.1 | 13.0 | 0.00 | 0.00 | 0.00 | 44 | 1008.5 |
| 20260504171548 | 67 | 213 | 5.2 | 15.6 | 0.00 | 0.00 | 0.00 | 46 | 1008.7 |
| 20260504171028 | 67 | 242 | 7.0 | 15.6 | 0.00 | 0.00 | 0.00 | 44 | 1008.7 |
| 20260504170529 | 67 | 174 | 6.1 | 16.5 | 0.00 | 0.00 | 0.00 | 42 | 1008.6 |
| 20260504151029 | 60 | 202 | 6.1 | 13.9 | 0.00 | 0.00 | 0.00 | 48 | 1010.1 |
| 20260504150533 | 60 | 130 | 6.1 | 12.2 | 0.00 | 0.00 | 0.00 | 48 | 1010.2 |
| 20260504141031 | 56 | 184 | 5.2 | 13.9 | 0.00 | 0.00 | 0.00 | 51 | 1010.7 |
| 20260504140528 | 56 | 224 | 4.3 | 13.0 | 0.00 | 0.00 | 0.00 | 52 | 1010.7 |
| 20260504130529 | 50 | 197 | 2.6 | 7.8 | 0.00 | 0.00 | 0.00 | 58 | 1011.3 |
| 20260504110528 | 42 | 216 | 0.9 | 4.3 | 0.00 | 0.00 | 0.00 | 67 | 1011.2 |
| 20260504100528 | 40 | 0 | 0.0 | 2.6 | 0.00 | 0.00 | 0.00 | 68 | 1011.2 |
| 20260504081556 | 43 | 196 | 1.7 | 5.2 | 0.00 | 0.00 | 0.00 | 62 | 1011.5 |
| 20260504081030 | 43 | 163 | 1.7 | 5.2 | 0.00 | 0.00 | 0.00 | 62 | 1011.5 |
| 20260504080528 | 44 | 168 | 0.9 | 5.2 | 0.00 | 0.00 | 0.00 | 62 | 1011.6 |
| 20260504004541 | 50 | 0 | 0.9 | 3.5 | 0.00 | 0.00 | 0.00 | 48 | 1011.9 |
| 20260504004028 | 51 | 0 | 0.9 | 4.3 | 0.00 | 0.00 | 0.00 | 47 | 1011.8 |
| 20260504003526 | 51 | 183 | 0.9 | 4.3 | 0.00 | 0.00 | 0.00 | 47 | 1011.8 |
| 20260504003046 | 51 | 216 | 1.7 | 5.2 | 0.00 | 0.00 | 0.00 | 45 | 1011.8 |
| 20260504002531 | 51 | 0 | 0.9 | 9.6 | 0.00 | 0.00 | 0.00 | 47 | 1011.7 |
| 20260504002026 | 51 | 0 | 1.7 | 9.6 | 0.00 | 0.00 | 0.00 | 46 | 1011.8 |
| 20260504001550 | 52 | 205 | 0.9 | 4.3 | 0.00 | 0.00 | 0.00 | 45 | 1011.7 |
| 20260504001030 | 52 | 215 | 0.9 | 7.0 | 0.00 | 0.00 | 0.00 | 45 | 1011.7 |
| 20260504000528 | 52 | 220 | 1.7 | 7.0 | 0.00 | 0.00 | 0.00 | 45 | 1011.7 |
| 20260504000113 | 52 | 198 | 0.9 | 5.2 | 0.00 | 0.00 | 0.00 | 45 | 1011.5 |
| 20260503235527 | 52 | 259 | 1.7 | 4.3 | 0.00 | 0.00 | 0.00 | 44 | 1011.5 |
| 20260503235027 | 53 | 279 | 0.0 | 6.1 | 0.00 | 0.00 | 0.00 | 44 | 1011.6 |
| 20260503234543 | 53 | 246 | 0.9 | 6.1 | 0.00 | 0.00 | 0.00 | 43 | 1011.5 |
| 20260503234027 | 53 | 250 | 0.9 | 3.5 | 0.00 | 0.00 | 0.00 | 44 | 1011.4 |
| 20260503233530 | 53 | 0 | 0.0 | 5.2 | 0.00 | 0.00 | 0.00 | 45 | 1011.3 |
| 20260503233040 | 53 | 289 | 0.9 | 5.2 | 0.00 | 0.00 | 0.00 | 44 | 1011.4 |
| 20260503232530 | 54 | 182 | 1.7 | 8.7 | 0.00 | 0.00 | 0.00 | 43 | 1011.3 |
| 20260503232026 | 54 | 0 | 1.7 | 8.7 | 0.00 | 0.00 | 0.00 | 42 | 1011.2 |
| 20260503231541 | 54 | 208 | 2.6 | 9.6 | 0.00 | 0.00 | 0.00 | 42 | 1011.3 |
| 20260503231031 | 54 | 219 | 1.7 | 9.6 | 0.00 | 0.00 | 0.00 | 43 | 1011.3 |
| 20260503230526 | 54 | 240 | 2.6 | 10.4 | 0.00 | 0.00 | 0.00 | 42 | 1011.2 |
| 20260503230053 | 55 | 204 | 2.6 | 11.3 | 0.00 | 0.00 | 0.00 | 41 | 1011.2 |
| 20260503225528 | 55 | 250 | 4.3 | 11.3 | 0.00 | 0.00 | 0.00 | 41 | 1011.1 |
| 20260503225029 | 55 | 173 | 0.9 | 6.1 | 0.00 | 0.00 | 0.00 | 42 | 1011.1 |
| 20260503224547 | 55 | 188 | 1.7 | 10.4 | 0.00 | 0.00 | 0.00 | 43 | 1011.2 |
| 20260503224029 | 55 | 242 | 2.6 | 10.4 | 0.00 | 0.00 | 0.00 | 45 | 1011.2 |
| 20260503223528 | 54 | 226 | 2.6 | 10.4 | 0.00 | 0.00 | 0.00 | 43 | 1011.2 |
| 20260503223045 | 54 | 178 | 1.7 | 13.0 | 0.00 | 0.00 | 0.00 | 43 | 1011.2 |
| 20260503222527 | 54 | 292 | 3.5 | 13.0 | 0.00 | 0.00 | 0.00 | 42 | 1011.2 |
| 20260503222028 | 55 | 242 | 0.9 | 7.0 | 0.00 | 0.00 | 0.00 | 43 | 1011.2 |
| 20260503221543 | 55 | 279 | 1.7 | 7.0 | 0.00 | 0.00 | 0.00 | 45 | 1011.2 |
| 20260503221027 | 54 | 215 | 1.7 | 10.4 | 0.00 | 0.00 | 0.00 | 44 | 1011.3 |
| 20260503220527 | 54 | 221 | 1.7 | 10.4 | 0.00 | 0.00 | 0.00 | 43 | 1011.3 |
| 20260503220042 | 55 | 221 | 2.6 | 10.4 | 0.00 | 0.00 | 0.00 | 41 | 1011.3 |
| 20260503215530 | 55 | 213 | 1.7 | 10.4 | 0.00 | 0.00 | 0.00 | 42 | 1011.3 |